Year,Month,Day,Hour,Minute,Value (Times are PST for temperature in C)
2016,08,20,00,00,25.50
2016,08,20,00,01,25.40
2016,08,20,00,02,25.40
2016,08,20,00,03,25.40
2016,08,20,00,04,25.30
2016,08,20,00,05,25.30
2016,08,20,00,06,25.30
2016,08,20,00,07,25.20
2016,08,20,00,08,25.20
2016,08,20,00,09,25.20
2016,08,20,00,10,25.10
2016,08,20,00,11,25.10
2016,08,20,00,12,25.10
2016,08,20,00,13,25.10
2016,08,20,00,14,25.00
2016,08,20,00,15,25.00
2016,08,20,00,16,25.00
2016,08,20,00,17,25.00
2016,08,20,00,18,24.90
2016,08,20,00,19,24.90
2016,08,20,00,20,24.90
2016,08,20,00,21,24.80
2016,08,20,00,22,24.80
2016,08,20,00,23,24.70
2016,08,20,00,24,24.70
2016,08,20,00,25,24.70
2016,08,20,00,26,24.60
2016,08,20,00,27,24.60
2016,08,20,00,28,24.60
2016,08,20,00,29,24.60
2016,08,20,00,30,24.60
2016,08,20,00,31,24.50
2016,08,20,00,32,24.50
2016,08,20,00,33,24.50
2016,08,20,00,34,24.40
2016,08,20,00,35,24.40
2016,08,20,00,36,24.40
2016,08,20,00,37,24.30
2016,08,20,00,38,24.30
2016,08,20,00,39,24.30
2016,08,20,00,40,24.30
2016,08,20,00,41,24.30
2016,08,20,00,42,24.30
2016,08,20,00,43,24.20
2016,08,20,00,44,24.20
2016,08,20,00,45,24.20
2016,08,20,00,46,24.20
2016,08,20,00,47,24.20
2016,08,20,00,48,24.10
2016,08,20,00,49,24.10
2016,08,20,00,50,24.10
2016,08,20,00,51,24.00
2016,08,20,00,52,24.00
2016,08,20,00,53,24.00
2016,08,20,00,54,23.90
2016,08,20,00,55,23.90
2016,08,20,00,56,23.90
2016,08,20,00,57,23.90
2016,08,20,00,58,23.80
2016,08,20,00,59,23.80
2016,08,20,01,00,23.80
2016,08,20,01,01,23.80
2016,08,20,01,02,23.70
2016,08,20,01,03,23.70
2016,08,20,01,04,23.70
2016,08,20,01,05,23.70
2016,08,20,01,06,23.70
2016,08,20,01,07,23.60
2016,08,20,01,08,23.60
2016,08,20,01,09,23.60
2016,08,20,01,10,23.50
2016,08,20,01,11,23.50
2016,08,20,01,12,23.50
2016,08,20,01,13,23.40
2016,08,20,01,14,23.40
2016,08,20,01,15,23.40
2016,08,20,01,16,23.40
2016,08,20,01,17,23.40
2016,08,20,01,18,23.40
2016,08,20,01,19,23.40
2016,08,20,01,20,23.40
2016,08,20,01,21,23.40
2016,08,20,01,22,23.30
2016,08,20,01,23,23.30
2016,08,20,01,24,23.30
2016,08,20,01,25,23.30
2016,08,20,01,26,23.30
2016,08,20,01,27,23.30
2016,08,20,01,28,23.30
2016,08,20,01,29,23.30
2016,08,20,01,30,23.30
2016,08,20,01,31,23.30
2016,08,20,01,32,23.30
2016,08,20,01,33,23.30
2016,08,20,01,34,23.30
2016,08,20,01,35,23.30
2016,08,20,01,36,23.30
2016,08,20,01,37,23.30
2016,08,20,01,38,23.30
2016,08,20,01,39,23.20
2016,08,20,01,40,23.20
2016,08,20,01,41,23.10
2016,08,20,01,42,23.10
2016,08,20,01,43,23.10
2016,08,20,01,44,23.10
2016,08,20,01,45,23.10
2016,08,20,01,46,23.00
2016,08,20,01,47,23.00
2016,08,20,01,48,22.90
2016,08,20,01,49,22.90
2016,08,20,01,50,22.90
2016,08,20,01,51,22.80
2016,08,20,01,52,22.80
2016,08,20,01,53,22.80
2016,08,20,01,54,22.80
2016,08,20,01,55,22.70
2016,08,20,01,56,22.70
2016,08,20,01,57,22.70
2016,08,20,01,58,22.70
2016,08,20,01,59,22.70
2016,08,20,02,00,22.70
2016,08,20,02,01,22.70
2016,08,20,02,02,22.70
2016,08,20,02,03,22.70
2016,08,20,02,04,22.70
2016,08,20,02,05,22.80
2016,08,20,02,06,22.80
2016,08,20,02,07,22.80
2016,08,20,02,08,22.80
2016,08,20,02,09,22.80
2016,08,20,02,10,22.80
2016,08,20,02,11,22.80
2016,08,20,02,12,22.80
2016,08,20,02,13,22.80
2016,08,20,02,14,22.80
2016,08,20,02,15,22.80
2016,08,20,02,16,22.80
2016,08,20,02,17,22.80
2016,08,20,02,18,22.80
2016,08,20,02,19,22.80
2016,08,20,02,20,22.80
2016,08,20,02,21,22.80
2016,08,20,02,22,22.80
2016,08,20,02,23,22.80
2016,08,20,02,24,22.80
2016,08,20,02,25,22.70
2016,08,20,02,26,22.70
2016,08,20,02,27,22.70
2016,08,20,02,28,22.70
2016,08,20,02,29,22.70
2016,08,20,02,30,22.70
2016,08,20,02,31,22.70
2016,08,20,02,32,22.70
2016,08,20,02,33,22.70
2016,08,20,02,34,22.70
2016,08,20,02,35,22.70
2016,08,20,02,36,22.70
2016,08,20,02,37,22.70
2016,08,20,02,38,22.60
2016,08,20,02,39,22.60
2016,08,20,02,40,22.60
2016,08,20,02,41,22.60
2016,08,20,02,42,22.50
2016,08,20,02,43,22.50
2016,08,20,02,44,22.50
2016,08,20,02,45,22.40
2016,08,20,02,46,22.40
2016,08,20,02,47,22.40
2016,08,20,02,48,22.30
2016,08,20,02,49,22.30
2016,08,20,02,50,22.30
2016,08,20,02,51,22.30
2016,08,20,02,52,22.30
2016,08,20,02,53,22.20
2016,08,20,02,54,22.20
2016,08,20,02,55,22.20
2016,08,20,02,56,22.20
2016,08,20,02,57,22.20
2016,08,20,02,58,22.20
2016,08,20,02,59,22.20
2016,08,20,03,00,22.20
2016,08,20,03,01,22.30
2016,08,20,03,02,22.30
2016,08,20,03,03,22.30
2016,08,20,03,04,22.30
2016,08,20,03,05,22.30
2016,08,20,03,06,22.30
2016,08,20,03,07,22.30
2016,08,20,03,08,22.30
2016,08,20,03,09,22.30
2016,08,20,03,10,22.30
2016,08,20,03,11,22.30
2016,08,20,03,12,22.20
2016,08,20,03,13,22.20
2016,08,20,03,14,22.20
2016,08,20,03,15,22.20
2016,08,20,03,16,22.20
2016,08,20,03,17,22.20
2016,08,20,03,18,22.20
2016,08,20,03,19,22.20
2016,08,20,03,20,22.10
2016,08,20,03,21,22.10
2016,08,20,03,22,22.10
2016,08,20,03,23,22.10
2016,08,20,03,24,22.10
2016,08,20,03,25,22.10
2016,08,20,03,26,22.10
2016,08,20,03,27,22.10
2016,08,20,03,28,22.10
2016,08,20,03,29,22.10
2016,08,20,03,30,22.10
2016,08,20,03,31,22.10
2016,08,20,03,32,22.00
2016,08,20,03,33,22.00
2016,08,20,03,34,22.00
2016,08,20,03,35,22.00
2016,08,20,03,36,22.00
2016,08,20,03,37,22.00
2016,08,20,03,38,22.00
2016,08,20,03,39,22.00
2016,08,20,03,40,21.90
2016,08,20,03,41,22.00
2016,08,20,03,42,22.00
2016,08,20,03,43,21.90
2016,08,20,03,44,21.90
2016,08,20,03,45,21.90
2016,08,20,03,46,21.90
2016,08,20,03,47,21.90
2016,08,20,03,48,22.00
2016,08,20,03,49,22.00
2016,08,20,03,50,22.00
2016,08,20,03,51,22.00
2016,08,20,03,52,22.00
2016,08,20,03,53,22.00
2016,08,20,03,54,22.00
2016,08,20,03,55,22.00
2016,08,20,03,56,22.00
2016,08,20,03,57,22.00
2016,08,20,03,58,22.00
2016,08,20,03,59,22.00
2016,08,20,04,00,22.00
2016,08,20,04,01,22.00
2016,08,20,04,02,22.00
2016,08,20,04,03,22.00
2016,08,20,04,04,22.00
2016,08,20,04,05,21.90
2016,08,20,04,06,21.90
2016,08,20,04,07,21.90
2016,08,20,04,08,21.90
2016,08,20,04,09,21.80
2016,08,20,04,10,21.80
2016,08,20,04,11,21.80
2016,08,20,04,12,21.70
2016,08,20,04,13,21.70
2016,08,20,04,14,21.70
2016,08,20,04,15,21.70
2016,08,20,04,16,21.60
2016,08,20,04,17,21.60
2016,08,20,04,18,21.60
2016,08,20,04,19,21.50
2016,08,20,04,20,21.50
2016,08,20,04,21,21.50
2016,08,20,04,22,21.40
2016,08,20,04,23,21.40
2016,08,20,04,24,21.40
2016,08,20,04,25,21.30
2016,08,20,04,26,21.30
2016,08,20,04,27,21.30
2016,08,20,04,28,21.30
2016,08,20,04,29,21.30
2016,08,20,04,30,21.20
2016,08,20,04,31,21.20
2016,08,20,04,32,21.20
2016,08,20,04,33,21.20
2016,08,20,04,34,21.20
2016,08,20,04,35,21.20
2016,08,20,04,36,21.20
2016,08,20,04,37,21.20
2016,08,20,04,38,21.20
2016,08,20,04,39,21.20
2016,08,20,04,40,21.20
2016,08,20,04,41,21.20
2016,08,20,04,42,21.20
2016,08,20,04,43,21.20
2016,08,20,04,44,21.20
2016,08,20,04,45,21.20
2016,08,20,04,46,21.10
2016,08,20,04,47,21.10
2016,08,20,04,48,21.10
2016,08,20,04,49,21.10
2016,08,20,04,50,21.00
2016,08,20,04,51,21.00
2016,08,20,04,52,20.90
2016,08,20,04,53,20.90
2016,08,20,04,54,20.90
2016,08,20,04,55,20.80
2016,08,20,04,56,20.80
2016,08,20,04,57,20.70
2016,08,20,04,58,20.70
2016,08,20,04,59,20.60
2016,08,20,05,00,20.60
2016,08,20,05,01,20.50
2016,08,20,05,02,20.50
2016,08,20,05,03,20.40
2016,08,20,05,04,20.40
2016,08,20,05,05,20.40
2016,08,20,05,06,20.30
2016,08,20,05,07,20.30
2016,08,20,05,08,20.30
2016,08,20,05,09,20.30
2016,08,20,05,10,20.30
2016,08,20,05,11,20.20
2016,08,20,05,12,20.20
2016,08,20,05,13,20.20
2016,08,20,05,14,20.20
2016,08,20,05,15,20.20
2016,08,20,05,16,20.20
2016,08,20,05,17,20.20
2016,08,20,05,18,20.20
2016,08,20,05,19,20.20
2016,08,20,05,20,20.20
2016,08,20,05,21,20.20
2016,08,20,05,22,20.20
2016,08,20,05,23,20.20
2016,08,20,05,24,20.20
2016,08,20,05,25,20.20
2016,08,20,05,26,20.20
2016,08,20,05,27,20.20
2016,08,20,05,28,20.20
2016,08,20,05,29,20.20
2016,08,20,05,30,20.20
2016,08,20,05,31,20.20
2016,08,20,05,32,20.20
2016,08,20,05,33,20.20
2016,08,20,05,34,20.20
2016,08,20,05,35,20.20
2016,08,20,05,36,20.20
2016,08,20,05,37,20.20
2016,08,20,05,38,20.20
2016,08,20,05,39,20.20
2016,08,20,05,40,20.20
2016,08,20,05,41,20.20
2016,08,20,05,42,20.20
2016,08,20,05,43,20.20
2016,08,20,05,44,20.20
2016,08,20,05,45,20.20
2016,08,20,05,46,20.20
2016,08,20,05,47,20.20
2016,08,20,05,48,20.20
2016,08,20,05,49,20.20
2016,08,20,05,50,20.20
2016,08,20,05,51,20.20
2016,08,20,05,52,20.10
2016,08,20,05,53,20.10
2016,08,20,05,54,20.10
2016,08,20,05,55,20.10
2016,08,20,05,56,20.10
2016,08,20,05,57,20.10
2016,08,20,05,58,20.10
2016,08,20,05,59,20.10
2016,08,20,06,00,20.00
2016,08,20,06,01,20.00
2016,08,20,06,02,20.00
2016,08,20,06,03,19.90
2016,08,20,06,04,19.90
2016,08,20,06,05,19.90
2016,08,20,06,06,19.90
2016,08,20,06,07,19.80
2016,08,20,06,08,19.80
2016,08,20,06,09,19.80
2016,08,20,06,10,19.80
2016,08,20,06,11,19.90
2016,08,20,06,12,19.80
2016,08,20,06,13,19.90
2016,08,20,06,14,19.90
2016,08,20,06,15,19.90
2016,08,20,06,16,19.90
2016,08,20,06,17,20.00
2016,08,20,06,18,20.00
2016,08,20,06,19,20.00
2016,08,20,06,20,20.00
2016,08,20,06,21,20.00
2016,08,20,06,22,20.00
2016,08,20,06,23,20.00
2016,08,20,06,24,20.00
2016,08,20,06,25,20.00
2016,08,20,06,26,20.00
2016,08,20,06,27,19.90
2016,08,20,06,28,19.90
2016,08,20,06,29,19.90
2016,08,20,06,30,19.90
2016,08,20,06,31,19.90
2016,08,20,06,32,19.90
2016,08,20,06,33,19.90
2016,08,20,06,34,19.90
2016,08,20,06,35,19.90
2016,08,20,06,36,19.90
2016,08,20,06,37,19.90
2016,08,20,06,38,20.00
2016,08,20,06,39,20.00
2016,08,20,06,40,20.00
2016,08,20,06,41,20.00
2016,08,20,06,42,20.10
2016,08,20,06,43,20.10
2016,08,20,06,44,20.10
2016,08,20,06,45,20.10
2016,08,20,06,46,20.10
2016,08,20,06,47,20.10
2016,08,20,06,48,20.10
2016,08,20,06,49,20.10
2016,08,20,06,50,20.20
2016,08,20,06,51,20.20
2016,08,20,06,52,20.20
2016,08,20,06,53,20.20
2016,08,20,06,54,20.20
2016,08,20,06,55,20.20
2016,08,20,06,56,20.20
2016,08,20,06,57,20.20
2016,08,20,06,58,20.20
2016,08,20,06,59,20.20
2016,08,20,07,00,20.20
2016,08,20,07,01,20.20
2016,08,20,07,02,20.20
2016,08,20,07,03,20.20
2016,08,20,07,04,20.20
2016,08,20,07,05,20.20
2016,08,20,07,06,20.30
2016,08,20,07,07,20.30
2016,08,20,07,08,20.30
2016,08,20,07,09,20.30
2016,08,20,07,10,20.30
2016,08,20,07,11,20.20
2016,08,20,07,12,20.20
2016,08,20,07,13,20.20
2016,08,20,07,14,20.20
2016,08,20,07,15,20.20
2016,08,20,07,16,20.20
2016,08,20,07,17,20.20
2016,08,20,07,18,20.20
2016,08,20,07,19,20.20
2016,08,20,07,20,20.20
2016,08,20,07,21,20.20
2016,08,20,07,22,20.30
2016,08,20,07,23,20.30
2016,08,20,07,24,20.30
2016,08,20,07,25,20.30
2016,08,20,07,26,20.30
2016,08,20,07,27,20.40
2016,08,20,07,28,20.40
2016,08,20,07,29,20.40
2016,08,20,07,30,20.50
2016,08,20,07,31,20.50
2016,08,20,07,32,20.60
2016,08,20,07,33,20.60
2016,08,20,07,34,20.60
2016,08,20,07,35,20.60
2016,08,20,07,36,20.60
2016,08,20,07,37,20.60
2016,08,20,07,38,20.60
2016,08,20,07,39,20.60
2016,08,20,07,40,20.60
2016,08,20,07,41,20.60
2016,08,20,07,42,20.60
2016,08,20,07,43,20.60
2016,08,20,07,44,20.60
2016,08,20,07,45,20.60
2016,08,20,07,46,20.60
2016,08,20,07,47,20.60
2016,08,20,07,48,20.50
2016,08,20,07,49,20.40
2016,08,20,07,50,20.40
2016,08,20,07,51,20.40
2016,08,20,07,52,20.40
2016,08,20,07,53,20.40
2016,08,20,07,54,20.40
2016,08,20,07,55,20.40
2016,08,20,07,56,20.40
2016,08,20,07,57,20.40
2016,08,20,07,58,20.40
2016,08,20,07,59,20.40
2016,08,20,08,00,20.40
2016,08,20,08,01,20.50
2016,08,20,08,02,20.50
2016,08,20,08,03,20.50
2016,08,20,08,04,20.60
2016,08,20,08,05,20.60
2016,08,20,08,06,20.60
2016,08,20,08,07,20.60
2016,08,20,08,08,20.70
2016,08,20,08,09,20.70
2016,08,20,08,10,20.70
2016,08,20,08,11,20.70
2016,08,20,08,12,20.70
2016,08,20,08,13,20.80
2016,08,20,08,14,20.80
2016,08,20,08,15,20.80
2016,08,20,08,16,20.80
2016,08,20,08,17,20.80
2016,08,20,08,18,20.80
2016,08,20,08,19,20.90
2016,08,20,08,20,20.90
2016,08,20,08,21,20.90
2016,08,20,08,22,20.90
2016,08,20,08,23,21.00
2016,08,20,08,24,21.00
2016,08,20,08,25,21.10
2016,08,20,08,26,21.10
2016,08,20,08,27,21.20
2016,08,20,08,28,21.20
2016,08,20,08,29,21.30
2016,08,20,08,30,21.30
2016,08,20,08,31,21.40
2016,08,20,08,32,21.40
2016,08,20,08,33,21.50
2016,08,20,08,34,21.50
2016,08,20,08,35,21.60
2016,08,20,08,36,21.60
2016,08,20,08,37,21.60
2016,08,20,08,38,21.70
2016,08,20,08,39,21.70
2016,08,20,08,40,21.70
2016,08,20,08,41,21.70
2016,08,20,08,42,21.70
2016,08,20,08,43,21.70
2016,08,20,08,44,21.70
2016,08,20,08,45,21.80
2016,08,20,08,46,21.80
2016,08,20,08,47,21.80
2016,08,20,08,48,21.80
2016,08,20,08,49,21.80
2016,08,20,08,50,21.90
2016,08,20,08,51,21.90
2016,08,20,08,52,21.90
2016,08,20,08,53,22.00
2016,08,20,08,54,22.10
2016,08,20,08,55,22.10
2016,08,20,08,56,22.10
2016,08,20,08,57,22.20
2016,08,20,08,58,22.20
2016,08,20,08,59,22.20
2016,08,20,09,00,22.30
2016,08,20,09,01,22.30
2016,08,20,09,02,22.30
2016,08,20,09,03,22.30
2016,08,20,09,04,22.30
2016,08,20,09,05,22.40
2016,08,20,09,06,22.40
2016,08,20,09,07,22.40
2016,08,20,09,08,22.40
2016,08,20,09,09,22.30
2016,08,20,09,10,22.30
2016,08,20,09,11,22.40
2016,08,20,09,12,22.40
2016,08,20,09,13,22.40
2016,08,20,09,14,22.40
2016,08,20,09,15,22.40
2016,08,20,09,16,22.40
2016,08,20,09,17,22.40
2016,08,20,09,18,22.40
2016,08,20,09,19,22.30
2016,08,20,09,20,22.30
2016,08,20,09,21,22.30
2016,08,20,09,22,22.20
2016,08,20,09,23,22.20
2016,08,20,09,24,22.10
2016,08,20,09,25,22.00
2016,08,20,09,26,21.90
2016,08,20,09,27,21.80
2016,08,20,09,28,21.80
2016,08,20,09,29,21.80
2016,08,20,09,30,21.80
2016,08,20,09,31,21.80
2016,08,20,09,32,21.80
2016,08,20,09,33,21.80
2016,08,20,09,34,21.80
2016,08,20,09,35,21.80
2016,08,20,09,36,21.90
2016,08,20,09,37,21.90
2016,08,20,09,38,21.90
2016,08,20,09,39,21.90
2016,08,20,09,40,21.90
2016,08,20,09,41,22.00
2016,08,20,09,42,22.00
2016,08,20,09,43,22.00
2016,08,20,09,44,22.00
2016,08,20,09,45,22.00
2016,08,20,09,46,22.00
2016,08,20,09,47,22.00
2016,08,20,09,48,22.10
2016,08,20,09,49,22.10
2016,08,20,09,50,22.20
2016,08,20,09,51,22.20
2016,08,20,09,52,22.30
2016,08,20,09,53,22.30
2016,08,20,09,54,22.40
2016,08,20,09,55,22.40
2016,08,20,09,56,22.50
2016,08,20,09,57,22.50
2016,08,20,09,58,22.60
2016,08,20,09,59,22.60
2016,08,20,10,00,22.60
2016,08,20,10,01,22.60
2016,08,20,10,02,22.60
2016,08,20,10,03,22.60
2016,08,20,10,04,22.50
2016,08,20,10,05,22.50
2016,08,20,10,06,22.50
2016,08,20,10,07,22.60
2016,08,20,10,08,22.60
2016,08,20,10,09,22.60
2016,08,20,10,10,22.60
2016,08,20,10,11,22.70
2016,08,20,10,12,22.70
2016,08,20,10,13,22.70
2016,08,20,10,14,22.80
2016,08,20,10,15,22.80
2016,08,20,10,16,22.70
2016,08,20,10,17,22.70
2016,08,20,10,18,22.70
2016,08,20,10,19,22.70
2016,08,20,10,20,22.70
2016,08,20,10,21,22.70
2016,08,20,10,22,22.70
2016,08,20,10,23,22.70
2016,08,20,10,24,22.70
2016,08,20,10,25,22.70
2016,08,20,10,26,22.70
2016,08,20,10,27,22.80
2016,08,20,10,28,22.80
2016,08,20,10,29,22.80
2016,08,20,10,30,22.90
2016,08,20,10,31,22.90
2016,08,20,10,32,22.90
2016,08,20,10,33,22.90
2016,08,20,10,34,23.00
2016,08,20,10,35,23.00
2016,08,20,10,36,22.90
2016,08,20,10,37,22.90
2016,08,20,10,38,22.90
2016,08,20,10,39,22.90
2016,08,20,10,40,22.80
2016,08,20,10,41,22.80
2016,08,20,10,42,22.90
2016,08,20,10,43,22.90
2016,08,20,10,44,22.90
2016,08,20,10,45,22.90
2016,08,20,10,46,22.80
2016,08,20,10,47,22.70
2016,08,20,10,48,22.60
2016,08,20,10,49,22.60
2016,08,20,10,50,22.60
2016,08,20,10,51,22.60
2016,08,20,10,52,22.50
2016,08,20,10,53,22.50
2016,08,20,10,54,22.40
2016,08,20,10,55,22.40
2016,08,20,10,56,22.40
2016,08,20,10,57,22.40
2016,08,20,10,58,22.40
2016,08,20,10,59,22.40
2016,08,20,11,00,22.50
2016,08,20,11,01,22.50
2016,08,20,11,02,22.60
2016,08,20,11,03,22.60
2016,08,20,11,04,22.50
2016,08,20,11,05,22.60
2016,08,20,11,06,22.60
2016,08,20,11,07,22.60
2016,08,20,11,08,22.60
2016,08,20,11,09,22.70
2016,08,20,11,10,22.70
2016,08,20,11,11,22.70
2016,08,20,11,12,22.70
2016,08,20,11,13,22.70
2016,08,20,11,14,22.60
2016,08,20,11,15,22.60
2016,08,20,11,16,22.60
2016,08,20,11,17,22.60
2016,08,20,11,18,22.60
2016,08,20,11,19,22.60
2016,08,20,11,20,22.70
2016,08,20,11,21,22.70
2016,08,20,11,22,22.70
2016,08,20,11,23,22.70
2016,08,20,11,24,22.60
2016,08,20,11,25,22.60
2016,08,20,11,26,22.60
2016,08,20,11,27,22.60
2016,08,20,11,28,22.60
2016,08,20,11,29,22.70
2016,08,20,11,30,22.70
2016,08,20,11,31,22.70
2016,08,20,11,32,22.80
2016,08,20,11,33,22.80
2016,08,20,11,34,22.80
2016,08,20,11,35,22.80
2016,08,20,11,36,22.80
2016,08,20,11,37,22.90
2016,08,20,11,38,22.90
2016,08,20,11,39,22.90
2016,08,20,11,40,22.90
2016,08,20,11,41,22.90
2016,08,20,11,42,22.90
2016,08,20,11,43,22.90
2016,08,20,11,44,22.90
2016,08,20,11,45,22.90
2016,08,20,11,46,22.90
2016,08,20,11,47,22.90
2016,08,20,11,48,22.80
2016,08,20,11,49,22.80
2016,08,20,11,50,22.80
2016,08,20,11,51,22.90
2016,08,20,11,52,22.90
2016,08,20,11,53,22.90
2016,08,20,11,54,22.90
2016,08,20,11,55,22.90
2016,08,20,11,56,23.00
2016,08,20,11,57,23.00
2016,08,20,11,58,23.10
2016,08,20,11,59,23.10
2016,08,20,12,00,23.20
2016,08,20,12,01,23.20
2016,08,20,12,02,23.20
2016,08,20,12,03,23.20
2016,08,20,12,04,23.20
2016,08,20,12,05,23.20
2016,08,20,12,06,23.20
2016,08,20,12,07,23.20
2016,08,20,12,08,23.20
2016,08,20,12,09,23.10
2016,08,20,12,10,23.00
2016,08,20,12,11,22.90
2016,08,20,12,12,22.80
2016,08,20,12,13,22.80
2016,08,20,12,14,22.80
2016,08,20,12,15,22.70
2016,08,20,12,16,22.70
2016,08,20,12,17,22.80
2016,08,20,12,18,22.80
2016,08,20,12,19,22.80
2016,08,20,12,20,22.90
2016,08,20,12,21,22.90
2016,08,20,12,22,22.90
2016,08,20,12,23,23.00
2016,08,20,12,24,23.00
2016,08,20,12,25,23.10
2016,08,20,12,26,23.10
2016,08,20,12,27,23.20
2016,08,20,12,28,23.20
2016,08,20,12,29,23.20
2016,08,20,12,30,23.30
2016,08,20,12,31,23.30
2016,08,20,12,32,23.40
2016,08,20,12,33,23.50
2016,08,20,12,34,23.50
2016,08,20,12,35,23.50
2016,08,20,12,36,23.50
2016,08,20,12,37,23.50
2016,08,20,12,38,23.40
2016,08,20,12,39,23.30
2016,08,20,12,40,23.30
2016,08,20,12,41,23.30
2016,08,20,12,42,23.30
2016,08,20,12,43,23.40
2016,08,20,12,44,23.50
2016,08,20,12,45,23.50
2016,08,20,12,46,23.60
2016,08,20,12,47,23.60
2016,08,20,12,48,23.50
2016,08,20,12,49,23.50
2016,08,20,12,50,23.40
2016,08,20,12,51,23.40
2016,08,20,12,52,23.40
2016,08,20,12,53,23.40
2016,08,20,12,54,23.40
2016,08,20,12,55,23.50
2016,08,20,12,56,23.40
2016,08,20,12,57,23.40
2016,08,20,12,58,23.40
2016,08,20,12,59,23.30
2016,08,20,13,00,23.30
2016,08,20,13,01,23.30
2016,08,20,13,02,23.30
2016,08,20,13,03,23.30
2016,08,20,13,04,23.30
2016,08,20,13,05,23.30
2016,08,20,13,06,23.30
2016,08,20,13,07,23.30
2016,08,20,13,08,23.30
2016,08,20,13,09,23.20
2016,08,20,13,10,23.20
2016,08,20,13,11,23.20
2016,08,20,13,12,23.20
2016,08,20,13,13,23.20
2016,08,20,13,14,23.20
2016,08,20,13,15,23.10
2016,08,20,13,16,23.00
2016,08,20,13,17,22.90
2016,08,20,13,18,22.90
2016,08,20,13,19,22.90
2016,08,20,13,20,22.90
2016,08,20,13,21,22.90
2016,08,20,13,22,22.80
2016,08,20,13,23,22.80
2016,08,20,13,24,22.80
2016,08,20,13,25,22.80
2016,08,20,13,26,22.80
2016,08,20,13,27,22.90
2016,08,20,13,28,23.00
2016,08,20,13,29,23.10
2016,08,20,13,30,23.30
2016,08,20,13,31,23.40
2016,08,20,13,32,23.50
2016,08,20,13,33,23.60
2016,08,20,13,34,23.70
2016,08,20,13,35,23.80
2016,08,20,13,36,23.80
2016,08,20,13,37,23.80
2016,08,20,13,38,23.80
2016,08,20,13,39,23.80
2016,08,20,13,40,23.70
2016,08,20,13,41,23.70
2016,08,20,13,42,23.70
2016,08,20,13,43,23.70
2016,08,20,13,44,23.80
2016,08,20,13,45,23.90
2016,08,20,13,46,23.90
2016,08,20,13,47,24.00
2016,08,20,13,48,24.10
2016,08,20,13,49,24.20
2016,08,20,13,50,24.20
2016,08,20,13,51,24.30
2016,08,20,13,52,24.40
2016,08,20,13,53,24.50
2016,08,20,13,54,24.50
2016,08,20,13,55,24.50
2016,08,20,13,56,24.50
2016,08,20,13,57,24.50
2016,08,20,13,58,24.60
2016,08,20,13,59,24.60
2016,08,20,14,00,24.60
2016,08,20,14,01,24.60
2016,08,20,14,02,24.50
2016,08,20,14,03,24.40
2016,08,20,14,04,24.40
2016,08,20,14,05,24.40
2016,08,20,14,06,24.50
2016,08,20,14,07,24.60
2016,08,20,14,08,24.60
2016,08,20,14,09,24.60
2016,08,20,14,10,24.70
2016,08,20,14,11,24.70
2016,08,20,14,12,24.80
2016,08,20,14,13,24.80
2016,08,20,14,14,24.90
2016,08,20,14,15,24.90
2016,08,20,14,16,24.80
2016,08,20,14,17,24.70
2016,08,20,14,18,24.60
2016,08,20,14,19,24.60
2016,08,20,14,20,24.60
2016,08,20,14,21,24.50
2016,08,20,14,22,24.50
2016,08,20,14,23,24.50
2016,08,20,14,24,24.50
2016,08,20,14,25,24.50
2016,08,20,14,26,24.60
2016,08,20,14,27,24.70
2016,08,20,14,28,24.80
2016,08,20,14,29,24.90
2016,08,20,14,30,25.00
2016,08,20,14,31,25.10
2016,08,20,14,32,25.20
2016,08,20,14,33,25.20
2016,08,20,14,34,25.30
2016,08,20,14,35,25.40
2016,08,20,14,36,25.50
2016,08,20,14,37,25.60
2016,08,20,14,38,25.70
2016,08,20,14,39,25.70
2016,08,20,14,40,25.80
2016,08,20,14,41,25.80
2016,08,20,14,42,25.90
2016,08,20,14,43,26.00
2016,08,20,14,44,26.00
2016,08,20,14,45,26.10
2016,08,20,14,46,26.10
2016,08,20,14,47,26.10
2016,08,20,14,48,26.10
2016,08,20,14,49,26.10
2016,08,20,14,50,26.00
2016,08,20,14,51,25.90
2016,08,20,14,52,25.90
2016,08,20,14,53,25.90
2016,08,20,14,54,26.00
2016,08,20,14,55,26.10
2016,08,20,14,56,26.10
2016,08,20,14,57,26.20
2016,08,20,14,58,26.30
2016,08,20,14,59,26.40
2016,08,20,15,00,26.50
2016,08,20,15,01,26.60
2016,08,20,15,02,26.70
2016,08,20,15,03,26.90
2016,08,20,15,04,26.90
2016,08,20,15,05,26.90
2016,08,20,15,06,26.90
2016,08,20,15,07,26.90
2016,08,20,15,08,26.90
2016,08,20,15,09,26.90
2016,08,20,15,10,26.90
2016,08,20,15,11,26.90
2016,08,20,15,12,26.80
2016,08,20,15,13,26.80
2016,08,20,15,14,26.80
2016,08,20,15,15,26.80
2016,08,20,15,16,26.80
2016,08,20,15,17,26.80
2016,08,20,15,18,26.80
2016,08,20,15,19,26.80
2016,08,20,15,20,26.80
2016,08,20,15,21,26.70
2016,08,20,15,22,26.60
2016,08,20,15,23,26.40
2016,08,20,15,24,26.40
2016,08,20,15,25,26.30
2016,08,20,15,26,26.20
2016,08,20,15,27,26.30
2016,08,20,15,28,26.30
2016,08,20,15,29,26.40
2016,08,20,15,30,26.50
2016,08,20,15,31,26.50
2016,08,20,15,32,26.60
2016,08,20,15,33,26.60
2016,08,20,15,34,26.60
2016,08,20,15,35,26.70
2016,08,20,15,36,26.80
2016,08,20,15,37,26.80
2016,08,20,15,38,26.80
2016,08,20,15,39,26.80
2016,08,20,15,40,26.80
2016,08,20,15,41,26.80
2016,08,20,15,42,26.80
2016,08,20,15,43,26.80
2016,08,20,15,44,26.80
2016,08,20,15,45,27.00
2016,08,20,15,46,27.10
2016,08,20,15,47,27.10
2016,08,20,15,48,27.20
2016,08,20,15,49,27.20
2016,08,20,15,50,27.30
2016,08,20,15,51,27.30
2016,08,20,15,52,27.30
2016,08,20,15,53,27.30
2016,08,20,15,54,27.30
2016,08,20,15,55,27.40
2016,08,20,15,56,27.40
2016,08,20,15,57,27.50
2016,08,20,15,58,27.50
2016,08,20,15,59,27.50
2016,08,20,16,00,27.50
2016,08,20,16,01,27.50
2016,08,20,16,02,27.60
2016,08,20,16,03,27.60
2016,08,20,16,04,27.70
2016,08,20,16,05,27.70
2016,08,20,16,06,27.70
2016,08,20,16,07,27.80
2016,08,20,16,08,27.80
2016,08,20,16,09,27.80
2016,08,20,16,10,27.80
2016,08,20,16,11,27.80
2016,08,20,16,12,27.80
2016,08,20,16,13,27.80
2016,08,20,16,14,27.80
2016,08,20,16,15,27.80
2016,08,20,16,16,27.90
2016,08,20,16,17,27.90
2016,08,20,16,18,27.90
2016,08,20,16,19,27.80
2016,08,20,16,20,27.80
2016,08,20,16,21,27.80
2016,08,20,16,22,27.80
2016,08,20,16,23,27.80
2016,08,20,16,24,27.80
2016,08,20,16,25,27.90
2016,08,20,16,26,27.90
2016,08,20,16,27,27.90
2016,08,20,16,28,27.90
2016,08,20,16,29,27.80
2016,08,20,16,30,27.80
2016,08,20,16,31,27.80
2016,08,20,16,32,27.80
2016,08,20,16,33,27.80
2016,08,20,16,34,27.80
2016,08,20,16,35,27.80
2016,08,20,16,36,27.90
2016,08,20,16,37,27.90
2016,08,20,16,38,27.90
2016,08,20,16,39,27.90
2016,08,20,16,40,27.90
2016,08,20,16,41,27.80
2016,08,20,16,42,27.80
2016,08,20,16,43,27.80
2016,08,20,16,44,27.70
2016,08,20,16,45,27.60
2016,08,20,16,46,27.50
2016,08,20,16,47,27.40
2016,08,20,16,48,27.40
2016,08,20,16,49,27.40
2016,08,20,16,50,27.40
2016,08,20,16,51,27.50
2016,08,20,16,52,27.50
2016,08,20,16,53,27.50
2016,08,20,16,54,27.50
2016,08,20,16,55,27.50
2016,08,20,16,56,27.50
2016,08,20,16,57,27.60
2016,08,20,16,58,27.60
2016,08,20,16,59,27.60
2016,08,20,17,00,27.60
2016,08,20,17,01,27.60
2016,08,20,17,02,27.60
2016,08,20,17,03,27.70
2016,08,20,17,04,27.70
2016,08,20,17,05,27.70
2016,08,20,17,06,27.70
2016,08,20,17,07,27.70
2016,08,20,17,08,27.60
2016,08,20,17,09,27.50
2016,08,20,17,10,27.50
2016,08,20,17,11,27.40
2016,08,20,17,12,27.40
2016,08,20,17,13,27.30
2016,08,20,17,14,27.30
2016,08,20,17,15,27.40
2016,08,20,17,16,27.40
2016,08,20,17,17,27.40
2016,08,20,17,18,27.40
2016,08,20,17,19,27.40